Location: Unspecified
(0.0000°N, 0.0000°E)
Time: 16:17:38
(UTC+02:00)

Cosmos 1125 Rocket - Visible Passes

Search period start: 31 August 2016 00:00
Search period end: 10 September 2016 00:00
Orbit: 759 x 780 km, 74.0° (Epoch: 30 August)

Date Brightness Start Highest point End Pass type
(mag) Time Alt. Az. Time Alt. Az. Time Alt. Az.
08 Sep 5.7 21:43:56 10° N 21:44:32 13° N 21:44:32 13° N visible
09 Sep 5.3 21:08:23 10° NNE 21:09:38 15° NE 21:09:38 15° NE visible
09 Sep 6.4 22:49:55 10° NW 22:50:01 10° NW 22:50:01 10° NW visible
